Temp
54 53 54 54 53 53 53 53 53 53 54 54 54 54 54 54 54 52 54 58 52 49 53 59 60 53 54 52 45 51 51 50 45 41 43 43 43 48 46 50 48 46 42 42 45 41 37 59 60 49 49 54 52 55
53 53 53 53 53 53 53 53 53 53 53 53 54 54 54 54 54 53 50 59 59 49 51 57 59 61 60 57 50 51 48 50 49 45 45 44 43 45 43 38 53 43 48 46 46 44 54 57 54 54 52 52 54 52
53 53 53 53 53 53 52 52 53 53 53 53 53 54 54 54 54 53 50 53 55 49 52 53 54 61 64 62 61 47 50 51 48 49 46 44 40 45 38 41 45 50 54 46 46 50 53 56 59 61 59 54 54 54
53 53 53 52 52 52 52 52 52 52 52 51 52 52 53 54 54 53 50 56 54 51 44 51 65 60 67 63 60 57 53 53 51 49 44 43 40 48 41 44 44 47 50 47 46 50 55 55 57 58 58 58 56 56
52 53 52 52 52 52 52 51 51 51 50 51 52 53 53 53 53 52 53 56 58 49 42 46 55 61 63 60 59 57 52 49 46 43 42 40 45 43 47 47 45 48 45 41 42 49 49 51 56 60 57 57 58 57
52 52 52 52 52 51 50 50 50 50 51 52 53 53 54 53 53 51 47 55 56 56 45 41 55 57 58 58 56 53 52 48 47 44 43 46 50 44 38 37 47 50 52 50 49 51 52 54 56 58 57 58 58 58
52 51 51 51 50 50 50 50 50 51 52 53 53 53 53 52 50 46 43 50 52 52 45 42 45 54 59 56 54 51 52 49 47 45 44 46 46 45 41 37 47 51 53 54 57 56 51 54 52 56 56 57 58 59
50 50 50 50 50 50 50 50 50 51 52 52 52 52 52 52 50 48 52 53 51 48 48 39 42 48 56 48 46 52 48 48 46 45 45 44 46 46 39 46 51 54 55 55 56 57 56 57 58 57 58 57 57 57
49 50 50 50 50 50 50 51 51 52 52 52 52 52 51 48 48 49 56 55 52 47 39 42 39 39 55 50 50 49 50 41 50 44 45 45 43 38 45 48 51 54 53 53 57 57 56 53 54 56 56 55 55 56
50 50 50 50 50 51 51 51 52 52 52 52 50 46 43 49 56 54 49 45 45 45 45 39 47 41 50 47 45 45 47 44 39 46 51 45 44 51 53 54 54 54 50 52 47 48 50 50 52 51 52 54 56 57
50 50 51 51 51 51 51 51 51 51 51 48 45 45 50 54 50 47 40 38 40 38 44 44 45 42 52 43 43 47 41 42 36 41 41 41 41 48 54 54 54 53 50 49 49 50 49 50 50 50 52 55 54 54
50 50 51 51 51 51 51 51 51 49 49 47 47 52 52 47 44 39 37 42 40 39 47 44 47 48 48 49 41 43 39 41 35 47 40 36 45 50 52 53 51 49 51 50 49 49 52 53 53 52 52 52 52 50
50 50 51 51 51 51 51 50 50 50 51 53 47 46 43 42 32 33 33 37 38 47 46 47 42 47 47 46 38 39 36 36 46 38 37 41 43 47 47 50 52 53 52 53 52 52 53 53 54 53 51 53 53 52
50 50 51 51 51 51 51 51 50 51 49 44 42 29 36 35 39 39 41 42 47 49 47 46 41 39 43 37 41 35 41 42 35 34 36 38 42 45 48 48 46 48 50 50 51 52 52 52 52 52 51 52 52 51
50 50 50 50 51 51 51 51 51 52 47 42 43 32 39 46 49 50 51 49 50 51 48 41 41 41 38 36 39 38 35 33 38 37 39 42 44 45 45 46 45 46 49 49 50 51 51 51 50 51 52 50 50 50
51 50 50 51 50 51 50 50 50 51 47 45 45 42 48 45 44 47 47 45 50 52 49 45 40 36 35 37 35 34 35 35 37 42 45 46 47 47 46 47 47 50 50 50 49 50 49 49 49 48 50 50 50 51
49 50 50 51 51 51 50 49 49 45 44 45 44 50 49 49 47 48 49 47 53 48 41 42 36 36 41 34 35 43 39 43 46 48 50 47 45 46 48 49 50 50 49 49 48 48 47 48 49 48 46 49 50 51
48 51 50 51 51 52 52 50 46 44 42 46 43 47 51 52 51 50 51 53 50 48 47 42 46 37 35 35 38 44 47 49 49 47 48 47 47 47 49 47 48 48 46 47 48 46 46 46 46 46 48 48 49 51
48 52 51 50 50 48 47 48 49 39 44 48 50 52 52 51 52 52 52 50 51 52 48 45 39 36 37 44 44 45 46 46 43 44 45 46 46 45 46 47 46 45 45 46 45 44 45 47 47 49 49 50 49 50
48 49 49 49 48 47 44 46 51 43 41 46 50 48 48 48 50 49 49 48 46 44 41 39 41 45 44 45 45 43 44 45 42 39 40 41 43 43 42 42 43 44 43 44 44 42 45 46 48 48 49 50 51 49
47 51 49 49 49 48 45 45 44 46 45 44 48 46 43 46 43 42 41 43 38 35 35 41 42 45 45 44 45 43 42 43 39 39 38 38 41 42 42 43 43 43 43 44 44 45 45 49 50 50 50 52 52 52
47 49 48 49 45 45 43 48 43 45 42 43 43 43 38 38 41 42 43 36 36 38 39 39 39 39 39 39 40 41 41 41 41 41 40 41 39 41 42 44 44 43 44 45 46 47 49 53 53 53 52 51 51 52
51 50 47 44 38 37 37 43 37 39 35 37 39 36 37 37 41 44 35 38 38 41 40 39 39 40 39 40 41 41 42 42 41 41 44 45 45 45 45 46 46 45 45 46 49 49 52 47 50 54 53 52 51 51
47 43 39 37 37 34 39 36 37 36 37 36 35 35 37 38 40 38 35 36 38 39 37 38 39 40 42 43 42 44 46 47 45 45 46 45 44 45 47 47 48 48 48 49 49 51 52 52 48 53 52 52 52 53
35 37 37 32 39 34 33 34 35 35 34 36 34 35 37 40 35 33 33 35 37 37 38 39 40 41 42 43 45 46 49 48 46 46 48 49 47 47 48 50 51 50 52 52 51 51 51 52 52 52 52 52 52 56
32 38 34 38 36 33 37 34 36 37 40 36 37 40 44 42 35 32 33 35 35 36 38 39 40 41 42 44 43 45 46 48 48 47 50 52 51 50 48 48 48 49 52 52 52 51 50 51 51 52 52 51 44 59
32 38 43 49 45 41 38 39 41 40 40 40 42 41 40 34 32 34 38 38 38 41 42 43 43 43 43 44 46 47 49 48 48 50 53 53 53 52 50 48 48 51 53 54 54 53 52 51 53 55 55 57 60 61
41 47 44 48 46 48 45 47 45 43 43 47 45 36 33 32 33 37 36 41 42 44 44 45 45 45 45 45 47 47 48 49 50 53 53 54 54 53 53 53 50 42 53 55 55 56 55 55 56 60 61 60 59 61
47 52 51 48 51 53 50 48 46 48 50 48 42 39 39 41 44 43 44 45 46 45 43 42 44 46 47 47 48 49 49 48 46 45 45 46 49 50 53 53 53 53 54 52 38 41 57 61 61 61 61 60 60 61
51 52 51 54 52 49 52 54 52 54 56 53 51 48 45 45 48 51 49 48 45 42 42 43 43 44 43 44 44 47 50 50 49 46 44 44 49 52 52 52 53 55 54 53 53 55 46 57 54 61 59 59 59 59
61 58 55 55 53 54 56 58 59 59 57 53 52 49 47 47 47 49 47 48 48 46 44 42 43 44 44 44 44 44 45 50 51 52 48 50 52 52 52 52 53 55 57 58 58 59 59 58 58 58 58 57 55 58
60 57 55 51 53 58 60 56 55 55 56 54 52 52 51 48 44 45 48 49 46 44 41 42 42 43 46 47 47 48 40 51 51 49 47 47 49 54 53 53 54 55 56 57 58 57 58 57 57 57 57 57 57 56
57 57 57 56 55 55 58 57 55 53 55 52 51 52 50 48 41 46 51 52 47 45 44 46 47 47 48 49 49 52 48 57 48 37 36 35 35 43 52 52 53 53 53 52 53 56 57 58 57 56 56 56 56 57
MSLP
1012.67 1013.67 1014.63 1015.45 1016.17 1017.03 1017.71 1018.39 1018.99 1019.42 1019.92 1020.22 1020.55 1020.72 1020.72 1020.71 1020.53 1020.35 1019.34 1018.63 1018.72 1018.01 1016.43 1016.00 1015.58 1015.32 1014.92 1014.68 1014.90 1014.79 1014.60 1014.82 1015.71 1016.22 1016.09 1015.28 1014.13 1013.17 1012.62 1012.34 1012.34 1012.64 1013.03 1013.51 1013.68 1013.23 1012.15 1010.89 1010.50 1011.56 1012.94 1012.64 1013.25 1012.86
1011.74 1012.72 1013.72 1014.64 1015.59 1016.42 1017.15 1017.88 1018.60 1019.15 1019.69 1020.16 1020.47 1020.66 1020.82 1020.75 1020.57 1020.51 1019.81 1018.34 1018.29 1018.63 1017.30 1016.34 1015.99 1015.53 1015.36 1015.33 1015.50 1015.37 1015.53 1015.62 1015.72 1016.01 1016.05 1015.67 1014.85 1014.01 1013.54 1012.97 1011.96 1012.20 1012.28 1012.47 1012.43 1011.69 1011.21 1010.96 1011.42 1011.98 1012.54 1013.10 1013.63 1013.54
1010.99 1011.86 1012.80 1013.93 1014.90 1015.81 1016.62 1017.51 1018.26 1018.88 1019.48 1020.01 1020.34 1020.62 1020.70 1020.65 1020.63 1020.71 1020.26 1019.28 1018.43 1018.04 1016.77 1016.15 1015.05 1014.62 1014.81 1015.12 1015.32 1016.01 1016.00 1016.14 1016.50 1016.83 1016.52 1016.30 1015.92 1015.06 1014.71 1014.03 1013.39 1012.63 1012.39 1012.65 1012.51 1011.82 1011.54 1011.36 1011.15 1011.10 1011.93 1012.93 1013.42 1013.48
1010.43 1011.26 1012.21 1013.33 1014.32 1015.35 1016.21 1017.15 1017.94 1018.73 1019.41 1019.90 1020.29 1020.53 1020.58 1020.55 1020.54 1020.60 1020.19 1019.12 1018.61 1018.11 1017.15 1014.97 1014.00 1013.99 1014.04 1014.74 1015.20 1015.64 1016.00 1016.42 1016.89 1017.11 1016.92 1016.56 1016.31 1015.71 1015.24 1014.68 1014.11 1013.81 1013.10 1012.78 1012.32 1012.01 1011.75 1011.81 1012.04 1012.05 1012.20 1012.52 1012.87 1013.22
1010.01 1010.74 1011.69 1012.68 1013.69 1014.76 1015.84 1016.89 1017.82 1018.62 1019.34 1019.83 1020.10 1020.37 1020.46 1020.49 1020.51 1020.48 1020.05 1018.99 1018.40 1018.59 1017.76 1016.36 1015.43 1014.37 1014.25 1014.69 1015.18 1015.53 1016.04 1016.66 1017.32 1017.40 1017.11 1016.67 1016.11 1016.26 1015.55 1015.02 1013.31 1013.68 1013.25 1013.45 1012.83 1012.80 1012.60 1012.24 1011.97 1011.88 1011.85 1012.04 1012.08 1012.20
1009.76 1010.45 1011.19 1012.19 1013.14 1014.45 1015.76 1016.96 1017.93 1018.73 1019.32 1019.70 1020.02 1020.25 1020.35 1020.48 1020.46 1020.21 1019.59 1018.89 1018.83 1018.26 1018.49 1016.93 1015.05 1013.93 1014.12 1014.60 1015.18 1015.54 1015.95 1016.58 1017.11 1017.16 1016.78 1016.05 1015.70 1015.89 1015.51 1014.29 1013.00 1013.17 1012.94 1012.86 1012.50 1012.39 1012.24 1011.72 1011.54 1011.55 1011.66 1011.54 1011.42 1011.44
1009.62 1010.46 1011.26 1012.31 1013.65 1014.97 1016.26 1017.28 1018.06 1018.79 1019.34 1019.69 1020.01 1020.22 1020.36 1020.42 1020.48 1020.30 1020.20 1019.92 1019.50 1019.18 1018.58 1017.17 1015.17 1013.79 1013.83 1014.53 1015.00 1015.27 1015.62 1016.08 1016.41 1016.65 1016.03 1016.03 1015.67 1015.68 1015.14 1013.69 1013.06 1013.03 1012.70 1012.32 1011.88 1011.73 1011.67 1011.43 1011.06 1011.05 1011.24 1011.00 1010.85 1010.69
1010.86 1011.71 1012.56 1013.58 1014.71 1015.83 1016.79 1017.61 1018.35 1018.96 1019.39 1019.75 1020.07 1020.22 1020.33 1020.37 1020.32 1020.03 1019.54 1019.60 1019.69 1019.51 1018.62 1017.56 1015.61 1014.20 1013.79 1014.35 1014.80 1014.67 1015.26 1015.49 1015.54 1015.58 1015.21 1015.10 1014.88 1014.68 1013.61 1012.48 1012.29 1011.95 1011.57 1011.29 1011.06 1010.99 1010.84 1010.57 1010.22 1010.14 1009.99 1010.05 1010.11 1010.06
1012.89 1013.44 1014.02 1014.80 1015.70 1016.60 1017.38 1018.01 1018.48 1018.98 1019.42 1019.81 1020.06 1020.16 1020.18 1020.19 1019.53 1019.53 1019.54 1019.63 1019.55 1019.82 1018.90 1017.64 1016.03 1014.62 1014.18 1014.13 1014.06 1014.03 1014.34 1014.65 1014.09 1013.94 1013.89 1014.23 1013.47 1012.61 1011.51 1011.45 1011.26 1010.72 1010.45 1010.25 1010.04 1009.91 1009.76 1009.88 1009.86 1009.65 1009.41 1009.03 1009.02 1009.06
1014.47 1014.94 1015.39 1015.91 1016.45 1017.04 1017.63 1018.18 1018.69 1018.99 1019.39 1019.84 1020.15 1020.10 1019.60 1019.10 1019.06 1019.44 1019.71 1019.73 1019.60 1019.21 1018.89 1017.70 1016.28 1015.13 1014.53 1014.47 1014.25 1014.20 1013.60 1013.55 1012.82 1012.21 1011.91 1011.94 1011.07 1010.58 1010.15 1009.90 1009.62 1009.65 1009.84 1009.84 1009.85 1009.85 1009.71 1009.53 1009.72 1009.46 1009.08 1008.99 1008.55 1008.09
1015.41 1015.97 1016.42 1016.73 1017.12 1017.68 1018.18 1018.52 1018.87 1019.19 1019.66 1019.87 1019.63 1019.09 1019.14 1019.02 1019.15 1019.20 1019.38 1019.42 1018.92 1018.34 1017.54 1016.26 1015.63 1015.26 1014.54 1014.48 1014.28 1013.98 1013.61 1013.27 1012.60 1011.75 1011.70 1011.15 1010.32 1009.78 1009.24 1009.01 1008.97 1009.10 1009.68 1009.79 1009.85 1009.58 1009.37 1009.21 1009.21 1009.05 1008.74 1008.31 1008.39 1008.19
1016.52 1017.14 1017.36 1017.50 1017.76 1018.17 1018.63 1018.96 1019.16 1019.37 1019.22 1019.49 1019.45 1018.90 1018.86 1019.00 1018.88 1019.00 1018.44 1017.64 1017.36 1016.39 1015.21 1014.81 1014.36 1014.59 1014.46 1014.45 1014.72 1014.70 1014.43 1013.73 1012.60 1011.54 1011.16 1010.25 1009.85 1009.66 1009.18 1008.63 1009.05 1009.48 1009.80 1009.63 1009.56 1009.04 1009.03 1008.62 1008.58 1008.67 1008.56 1008.12 1008.06 1007.84
1017.41 1017.63 1017.87 1018.01 1018.14 1018.57 1019.01 1019.25 1019.36 1019.28 1019.07 1018.44 1018.93 1018.46 1018.40 1018.53 1018.52 1018.09 1016.90 1016.10 1015.53 1014.74 1015.00 1014.70 1014.51 1014.59 1014.75 1015.23 1015.50 1015.43 1014.74 1013.62 1012.52 1011.61 1010.90 1010.48 1010.87 1010.61 1010.85 1010.68 1010.21 1009.65 1009.39 1009.23 1009.06 1008.78 1008.55 1008.45 1008.36 1008.07 1007.78 1007.48 1007.27 1006.64
1017.88 1018.02 1018.21 1018.39 1018.69 1019.00 1019.13 1019.26 1019.46 1019.48 1019.21 1018.61 1018.06 1018.08 1017.81 1017.43 1016.78 1016.20 1015.55 1015.06 1014.84 1014.59 1014.87 1015.32 1015.49 1015.38 1015.59 1015.67 1015.57 1015.45 1014.50 1013.43 1012.04 1010.86 1010.35 1011.01 1011.09 1011.24 1011.11 1010.74 1010.55 1010.01 1009.55 1009.22 1008.79 1008.37 1008.03 1007.79 1007.40 1007.27 1007.21 1006.85 1006.80 1006.68
1018.39 1018.55 1018.70 1018.89 1019.01 1019.14 1019.26 1019.36 1019.49 1019.35 1019.01 1018.33 1017.63 1017.16 1016.18 1015.66 1015.07 1014.73 1014.38 1014.40 1014.31 1014.16 1014.56 1015.46 1015.93 1015.85 1015.78 1015.89 1015.65 1015.08 1013.95 1012.41 1010.97 1010.08 1010.26 1010.45 1010.40 1010.60 1010.66 1010.34 1010.00 1009.51 1009.04 1008.68 1008.10 1007.58 1007.04 1006.60 1006.46 1006.25 1006.35 1006.39 1006.48 1006.20
1018.72 1018.81 1018.93 1019.06 1019.17 1019.23 1019.30 1019.46 1019.53 1019.20 1018.71 1018.03 1016.88 1015.67 1014.81 1014.82 1014.71 1014.42 1014.28 1014.04 1013.87 1013.68 1014.03 1014.69 1015.11 1015.19 1015.22 1015.13 1014.65 1013.81 1012.47 1010.78 1010.07 1009.75 1009.65 1009.68 1009.84 1009.74 1009.82 1009.71 1009.30 1008.68 1008.09 1007.48 1007.08 1006.87 1006.65 1006.34 1006.12 1005.69 1005.63 1005.59 1005.48 1005.28
1018.77 1018.69 1019.12 1019.19 1019.24 1019.28 1019.54 1019.59 1019.25 1018.83 1017.90 1016.57 1015.46 1014.67 1014.55 1014.05 1013.80 1013.61 1013.41 1013.50 1013.06 1013.44 1013.58 1014.17 1014.73 1014.18 1014.10 1014.11 1013.09 1011.79 1010.79 1010.09 1009.78 1009.53 1009.37 1009.67 1009.78 1009.67 1009.31 1008.75 1008.13 1007.52 1006.98 1006.74 1006.52 1006.38 1006.22 1005.85 1005.42 1005.09 1004.77 1004.53 1004.45 1004.20
1018.83 1019.12 1019.23 1019.27 1019.28 1019.18 1019.05 1019.10 1018.72 1018.04 1016.94 1015.91 1015.13 1014.34 1013.79 1013.28 1013.00 1012.95 1013.33 1013.16 1013.05 1013.14 1013.23 1013.36 1013.27 1013.21 1013.04 1012.14 1011.41 1010.92 1010.43 1010.02 1009.80 1009.80 1009.65 1009.57 1009.43 1009.11 1008.62 1008.00 1007.38 1007.04 1006.78 1006.43 1005.94 1005.66 1005.26 1004.91 1004.58 1004.19 1003.93 1003.63 1003.42 1003.11
1019.55 1019.30 1019.48 1019.58 1019.58 1019.54 1018.63 1018.41 1018.30 1017.60 1016.22 1015.31 1014.55 1014.04 1013.53 1013.02 1012.75 1012.93 1012.97 1013.16 1012.88 1012.67 1012.89 1012.93 1012.88 1012.27 1012.06 1011.65 1011.32 1010.88 1010.74 1010.69 1010.21 1009.87 1009.62 1009.33 1009.23 1008.80 1008.10 1007.52 1007.08 1006.58 1006.11 1005.62 1005.24 1004.75 1004.31 1003.98 1003.68 1003.39 1003.05 1002.69 1002.43 1002.39
1019.62 1019.59 1019.67 1019.79 1019.85 1019.23 1018.37 1017.76 1017.91 1017.32 1016.13 1015.11 1014.59 1014.05 1013.84 1013.64 1013.44 1013.46 1013.51 1013.69 1013.83 1013.75 1013.59 1013.25 1012.57 1012.21 1012.00 1011.82 1011.86 1011.69 1011.27 1011.16 1010.87 1009.85 1009.04 1008.69 1008.64 1008.24 1007.65 1007.20 1006.54 1005.95 1005.47 1004.93 1004.41 1003.88 1003.32 1002.78 1002.62 1002.58 1002.60 1002.37 1001.99 1002.16
1019.46 1019.05 1019.64 1019.75 1019.53 1019.40 1018.69 1017.68 1017.18 1016.58 1015.96 1015.29 1014.62 1014.58 1014.32 1014.00 1013.92 1014.04 1014.23 1014.44 1014.55 1014.49 1014.33 1013.82 1013.29 1012.84 1012.60 1012.41 1012.05 1011.78 1011.38 1011.07 1010.44 1009.93 1008.98 1007.97 1007.47 1007.31 1006.65 1006.16 1005.68 1005.14 1004.71 1004.14 1003.59 1002.82 1002.23 1001.66 1001.46 1001.69 1001.82 1001.33 1002.26 1002.79
1019.32 1019.44 1019.46 1019.60 1019.39 1019.06 1018.61 1017.97 1017.66 1017.10 1016.73 1015.74 1015.41 1015.13 1014.99 1014.54 1014.15 1014.04 1014.41 1015.04 1015.19 1015.12 1014.99 1014.53 1014.06 1013.52 1012.84 1012.25 1011.56 1011.15 1010.59 1010.04 1009.33 1008.76 1007.96 1007.30 1006.55 1005.90 1005.27 1004.70 1004.51 1004.05 1003.72 1003.35 1002.96 1002.24 1001.47 1000.50 1000.43 1000.74 1001.53 1002.18 1002.73 1003.49
1019.31 1019.36 1019.19 1019.44 1019.39 1019.14 1018.70 1018.44 1018.07 1017.27 1016.79 1016.20 1015.68 1015.36 1015.03 1014.80 1014.54 1014.44 1015.15 1015.39 1015.51 1015.48 1015.23 1014.76 1013.90 1013.16 1012.51 1011.57 1010.80 1010.03 1009.33 1008.72 1007.96 1006.91 1006.07 1005.48 1004.90 1004.47 1004.12 1003.56 1003.34 1003.14 1002.77 1002.03 1001.76 1001.48 1001.18 1000.69 1000.67 1001.25 1002.14 1002.90 1003.50 1004.24
1019.77 1019.53 1019.28 1019.21 1019.06 1018.72 1018.50 1018.15 1017.93 1017.44 1016.82 1016.18 1015.66 1015.17 1014.86 1014.83 1015.17 1015.13 1015.49 1015.63 1015.64 1015.38 1014.96 1014.29 1013.37 1012.32 1011.27 1010.47 1009.72 1008.59 1007.54 1006.93 1006.12 1005.53 1004.80 1004.22 1003.66 1003.02 1002.73 1002.33 1002.05 1001.86 1001.58 1001.38 1001.05 1000.92 1000.88 1001.07 1001.46 1001.97 1002.77 1003.45 1004.03 1004.33
1019.91 1019.35 1019.06 1018.68 1018.37 1018.28 1017.93 1017.46 1017.05 1016.61 1016.06 1015.62 1015.29 1014.98 1014.76 1014.86 1015.30 1015.82 1016.21 1016.18 1015.68 1015.23 1014.62 1013.80 1012.95 1012.06 1010.99 1010.04 1008.97 1007.85 1006.72 1006.15 1005.30 1004.46 1003.39 1002.94 1002.46 1002.29 1002.05 1001.59 1001.26 1000.98 1000.86 1000.81 1000.99 1001.06 1001.31 1001.39 1001.80 1002.06 1003.28 1003.90 1004.34 1004.53
1018.74 1017.99 1017.93 1017.16 1017.21 1017.36 1016.82 1016.44 1015.90 1015.43 1015.04 1015.03 1014.92 1014.63 1014.13 1014.36 1015.56 1016.45 1016.72 1016.53 1016.03 1015.39 1014.53 1013.70 1012.72 1011.71 1010.79 1009.92 1008.86 1007.63 1006.46 1005.57 1004.66 1004.00 1003.12 1002.47 1002.12 1001.98 1001.74 1001.40 1001.15 1000.91 1000.75 1000.70 1000.72 1001.17 1001.56 1001.93 1002.52 1003.01 1004.03 1004.53 1004.58 1004.84
1017.55 1016.35 1016.01 1015.65 1015.45 1015.78 1015.76 1015.38 1015.11 1014.80 1014.20 1014.02 1013.98 1014.35 1014.65 1015.39 1016.36 1017.05 1016.85 1016.56 1015.97 1015.11 1014.24 1013.51 1012.78 1011.73 1010.96 1009.94 1008.90 1007.81 1006.60 1005.74 1004.88 1003.97 1003.52 1003.01 1002.60 1002.17 1001.85 1001.62 1001.39 1001.01 1000.93 1001.07 1001.33 1001.70 1002.30 1003.02 1003.59 1003.97 1004.36 1004.53 1004.88 1005.23
1015.91 1014.72 1013.89 1013.71 1013.85 1013.68 1013.41 1013.14 1013.50 1013.68 1013.74 1013.78 1014.03 1015.15 1015.92 1016.68 1017.18 1017.17 1016.97 1016.22 1015.84 1015.06 1014.29 1013.46 1012.68 1011.89 1011.11 1010.25 1009.18 1008.38 1007.27 1006.71 1005.79 1004.54 1003.80 1003.54 1003.11 1002.86 1002.29 1001.95 1001.99 1001.94 1001.89 1002.12 1002.62 1003.07 1003.65 1004.03 1004.23 1003.98 1004.28 1004.82 1005.30 1005.92
1013.61 1012.78 1012.56 1012.00 1011.79 1011.61 1011.99 1012.32 1012.84 1013.11 1013.35 1013.50 1014.10 1014.87 1015.71 1016.38 1016.63 1016.73 1016.50 1016.16 1015.57 1015.03 1014.37 1013.60 1012.70 1011.83 1011.02 1010.32 1009.65 1008.86 1008.10 1007.43 1006.83 1005.85 1005.44 1004.60 1004.28 1004.12 1003.93 1003.55 1003.35 1003.42 1003.63 1003.95 1004.34 1004.55 1004.14 1004.23 1004.37 1004.62 1005.08 1005.66 1006.22 1006.79
1011.80 1011.69 1011.05 1010.49 1010.46 1011.06 1011.53 1011.56 1011.94 1012.22 1012.49 1013.04 1013.73 1014.54 1015.33 1015.92 1016.05 1015.97 1016.03 1015.83 1015.53 1015.29 1014.86 1014.29 1013.59 1012.72 1011.91 1011.10 1010.27 1009.34 1008.58 1008.24 1007.89 1007.63 1007.07 1006.32 1005.52 1005.37 1005.21 1004.98 1004.94 1005.01 1005.06 1005.19 1005.12 1004.98 1004.80 1005.03 1005.54 1005.85 1006.36 1006.85 1007.30 1007.76
1009.59 1010.03 1010.04 1010.09 1010.19 1010.55 1010.88 1011.09 1011.10 1011.28 1011.76 1012.44 1013.08 1013.45 1014.21 1015.17 1015.77 1016.01 1016.15 1016.00 1015.68 1015.47 1015.02 1014.47 1013.74 1013.12 1012.37 1011.71 1011.07 1010.29 1009.47 1008.53 1008.03 1007.77 1007.67 1007.11 1006.41 1006.37 1006.23 1006.17 1006.08 1005.81 1005.45 1005.55 1005.80 1006.05 1006.33 1006.64 1006.93 1007.19 1007.56 1007.97 1008.41 1008.71
1009.05 1009.16 1009.31 1009.72 1009.91 1010.06 1010.15 1010.53 1010.88 1010.91 1011.07 1011.66 1012.25 1012.98 1013.67 1014.38 1015.25 1016.00 1016.26 1016.16 1015.97 1015.71 1015.45 1014.89 1014.25 1013.56 1012.90 1012.17 1011.39 1010.81 1010.22 1009.26 1008.77 1008.41 1008.01 1007.55 1007.39 1007.15 1007.07 1007.11 1006.99 1006.60 1006.39 1006.45 1006.73 1007.02 1007.25 1007.55 1007.87 1008.20 1008.52 1008.88 1009.28 1009.76
1009.17 1009.41 1009.49 1009.57 1009.67 1009.55 1009.80 1010.05 1010.09 1010.44 1010.74 1011.41 1012.19 1012.70 1013.53 1014.37 1015.46 1016.12 1016.20 1016.22 1016.21 1015.95 1015.61 1015.17 1014.50 1013.78 1013.05 1012.27 1011.56 1010.71 1009.84 1009.23 1009.05 1008.81 1008.47 1008.29 1008.02 1007.94 1008.03 1008.06 1007.90 1007.66 1007.67 1007.85 1007.90 1007.97 1008.11 1008.38 1008.79 1009.17 1009.51 1009.86 1010.32 1010.85
Wind_Speed
25 25 23 22 21 20 18 16 15 12 11 9 6 3 3 6 8 5 5 1 1 3 8 6 8 6 4 3 1 5 4 1 2 3 2 4 4 6 6 7 7 6 6 8 8 10 14 6 6 4 2 4 9 6
25 25 24 23 21 21 19 17 15 14 12 10 7 4 4 4 6 6 4 2 2 2 5 8 9 10 6 3 2 4 2 2 1 1 1 3 4 4 4 4 5 4 2 3 4 6 6 1 4 6 6 4 3 6
25 26 25 23 22 21 20 18 16 15 14 11 8 6 4 3 4 4 4 4 3 3 6 7 8 11 6 4 1 2 2 3 4 2 1 2 3 4 3 4 7 6 6 2 5 5 7 6 2 4 5 5 6 5
23 24 24 24 23 22 21 20 18 17 15 11 8 6 5 4 4 5 3 5 3 3 4 3 5 4 7 7 5 4 2 4 2 2 2 2 1 1 3 6 7 4 7 5 7 6 6 7 6 7 3 5 5 6
22 23 24 24 24 24 23 21 20 17 13 11 10 7 6 4 6 5 5 5 5 1 4 7 10 9 4 6 5 4 2 3 1 2 3 3 2 2 6 8 14 3 4 2 8 4 4 7 5 5 5 6 6 5
16 19 21 21 21 23 25 22 19 15 13 11 9 7 5 1 4 4 3 2 6 3 2 4 4 5 9 8 6 6 4 3 3 2 3 4 6 1 4 7 5 6 10 8 12 5 7 10 7 4 6 7 6 7
17 19 23 28 28 26 23 20 17 15 12 10 8 6 3 1 2 1 1 2 8 3 3 4 4 5 11 9 6 3 4 3 4 4 6 7 5 3 5 16 11 10 11 14 17 15 13 9 11 8 8 9 9 8
29 28 28 26 24 23 21 19 17 14 12 9 7 4 2 2 6 4 3 5 3 2 3 3 5 3 5 3 2 5 5 4 4 5 3 5 4 6 11 13 17 18 18 17 15 15 16 16 16 17 16 13 15 14
23 23 23 23 23 22 20 18 16 14 11 9 6 4 3 2 2 3 7 2 3 2 2 3 3 3 3 4 3 3 5 4 5 8 9 4 8 9 8 13 16 18 17 16 15 15 9 6 9 12 13 11 10 12
21 20 20 20 19 17 16 15 14 13 10 8 3 3 2 2 13 8 1 1 1 2 3 4 4 6 6 4 3 2 4 6 5 8 6 10 14 18 15 13 11 9 3 4 5 6 7 9 8 9 10 11 12 15
18 16 16 17 16 14 14 14 13 12 7 3 3 1 3 6 2 3 1 3 4 4 5 5 8 7 4 7 5 3 3 3 4 6 4 10 13 12 15 12 6 6 1 2 4 6 5 7 10 11 14 13 13 14
15 14 14 14 14 13 11 10 7 2 1 3 2 4 3 3 2 2 4 4 5 5 6 5 6 6 1 4 3 4 3 3 6 3 3 6 8 5 9 5 4 1 6 7 10 10 11 7 9 11 13 11 12 10
13 12 11 11 11 10 8 6 3 6 8 3 4 5 3 1 2 5 5 4 4 2 5 9 3 3 3 3 1 2 3 5 3 5 6 2 9 13 14 13 15 10 6 7 8 9 9 12 12 11 13 10 12 10
11 10 10 9 8 8 7 4 1 3 3 2 2 1 3 5 6 6 6 6 4 2 4 3 2 2 2 1 2 2 5 4 5 5 9 1 4 6 7 6 9 14 15 14 12 13 14 15 13 11 13 10 9 11
10 9 9 8 8 7 7 5 2 2 2 3 2 4 7 7 7 6 7 3 5 4 3 2 0 3 3 1 3 4 5 6 6 4 1 3 6 6 8 7 8 11 13 13 14 15 17 15 14 13 11 7 10 13
5 4 6 6 4 5 6 3 2 2 2 4 6 6 6 1 7 5 2 4 6 4 2 3 3 3 4 4 5 7 5 6 5 3 2 3 5 6 7 9 12 13 14 14 11 11 10 11 11 11 10 11 13 14
5 3 5 5 5 6 5 2 2 4 4 4 5 7 9 6 8 7 5 5 4 2 4 3 3 6 3 4 4 5 10 10 8 11 7 8 9 11 13 14 13 14 12 11 10 11 13 14 13 13 13 14 12 14
3 5 3 3 2 3 3 3 2 4 7 6 7 7 8 7 5 7 6 3 1 2 3 5 3 5 5 10 11 10 10 10 9 11 11 11 15 18 16 16 11 10 12 13 11 11 12 12 12 10 12 12 12 11
4 3 2 4 4 2 2 4 3 4 5 6 6 7 6 5 3 6 6 6 4 2 2 2 5 4 6 6 9 10 10 11 12 12 14 16 17 17 16 15 14 14 14 13 12 10 9 11 9 8 7 7 5 3
5 6 5 3 2 3 4 2 3 4 4 3 6 7 5 5 3 3 5 3 3 3 2 3 5 8 8 7 8 9 10 10 10 14 16 12 10 12 14 12 10 12 12 12 11 11 9 8 7 7 7 7 3 8
5 5 6 3 3 4 4 3 4 4 5 4 5 5 5 4 3 2 3 2 1 1 3 4 7 8 10 11 11 11 12 12 11 11 13 14 12 10 11 10 11 10 9 7 8 9 9 8 6 5 5 5 10 9
2 7 1 0 3 3 4 3 4 6 3 5 5 2 3 4 3 2 3 1 1 1 2 4 8 10 11 14 12 12 13 15 15 13 18 17 13 11 10 9 8 9 8 8 7 8 9 5 4 5 9 10 12 12
3 2 0 3 3 1 4 1 2 3 3 3 3 2 3 2 2 2 2 2 0 2 6 9 11 13 13 16 16 15 15 14 11 12 12 10 10 10 9 10 8 7 7 8 5 4 5 2 9 13 13 12 10 8
4 2 2 2 2 3 2 2 2 2 3 3 2 3 2 2 2 2 2 2 3 6 7 11 9 9 9 9 8 9 10 9 10 10 11 10 9 9 6 7 6 6 7 6 6 3 4 5 12 13 13 13 11 9
2 3 3 4 3 2 3 3 3 3 3 2 2 3 2 2 1 2 3 4 5 8 9 10 9 9 9 8 9 10 10 8 8 10 10 7 7 5 5 4 2 2 2 3 2 5 6 6 9 18 16 13 11 12
3 5 5 3 3 3 2 3 2 3 2 2 2 4 3 0 4 3 3 5 6 7 10 11 11 10 10 10 10 11 13 11 10 6 6 7 5 3 4 3 2 2 1 3 7 10 11 14 17 21 16 11 8 14
4 4 5 6 3 4 3 4 4 2 2 4 3 5 5 5 4 2 3 3 5 9 10 9 9 8 9 9 9 10 11 12 11 5 5 5 5 5 5 5 4 3 6 8 12 16 18 17 16 14 8 10 14 12
6 5 5 5 5 6 3 2 3 5 3 4 3 5 3 4 2 2 3 5 9 9 8 8 8 9 8 9 8 9 9 10 10 9 6 6 6 7 9 9 10 15 10 10 12 13 13 10 8 11 15 12 11 11
5 4 5 4 5 3 3 3 2 1 1 1 2 2 3 3 2 2 3 5 6 7 8 10 11 11 9 9 9 9 9 10 14 17 16 10 6 8 8 9 10 9 10 8 8 6 3 11 14 13 14 13 12 12
8 4 4 2 3 4 2 3 3 4 3 4 3 3 3 2 2 1 4 6 7 7 8 8 9 9 10 10 11 14 10 9 8 6 7 7 5 4 6 7 8 7 4 3 2 9 13 12 12 12 12 10 10 11
3 6 3 3 5 7 6 3 2 1 5 4 5 4 5 4 3 3 6 7 7 7 9 10 10 10 10 11 11 11 12 9 12 12 8 5 6 5 5 5 4 4 2 5 8 9 10 9 9 11 11 11 10 11
2 2 2 5 3 5 5 6 4 2 1 6 4 5 4 3 3 3 4 6 8 8 9 9 10 12 11 10 9 7 7 7 7 8 12 5 5 6 5 4 5 6 8 6 7 9 10 8 8 10 10 11 10 10
3 3 2 1 2 2 3 1 4 5 3 5 5 5 6 4 5 3 2 6 6 7 7 8 9 9 11 12 9 10 10 9 5 4 6 6 6 6 6 4 6 9 12 9 8 7 8 12 11 9 8 9 10 12
Wind_Direction
191 189 191 191 189 190 189 189 190 189 198 199 214 244 297 333 358 355 293 238 63 289 307 338 356 336 325 302 344 347 21 356 127 161 238 249 258 240 246 249 243 200 179 209 218 234 264 6 37 34 241 19 21 346
191 187 186 186 188 186 184 183 184 181 187 194 204 225 258 306 353 357 276 211 163 228 275 314 269 279 290 11 36 324 291 324 330 158 96 336 342 344 345 285 313 280 183 217 187 208 179 146 155 153 151 133 12 16
192 187 182 183 183 184 178 179 178 180 181 186 199 223 248 280 341 342 300 305 266 254 266 244 245 230 224 208 192 151 37 12 47 286 274 248 287 26 323 296 331 312 22 13 21 16 348 344 231 136 130 138 164 119
188 184 180 180 179 180 175 174 175 172 174 176 198 222 239 269 311 322 296 304 293 284 273 329 24 75 165 184 184 208 243 63 23 353 290 229 222 337 271 276 279 263 333 308 285 319 330 56 31 25 19 231 176 182
188 183 181 181 180 176 171 166 158 154 164 187 195 209 231 253 299 290 270 266 277 198 312 315 315 276 154 143 201 236 185 127 191 277 231 237 201 274 256 268 265 239 261 270 277 302 232 266 282 282 262 260 271 242
181 183 180 179 167 151 140 141 147 157 178 176 184 199 198 231 328 264 232 98 2 359 275 282 353 261 161 156 182 200 201 184 188 218 246 237 239 240 254 254 236 301 308 288 284 275 262 260 273 298 296 301 285 265
141 136 130 126 125 126 132 141 148 155 161 166 168 178 190 258 290 303 340 342 330 327 257 280 265 205 167 166 208 188 209 215 202 232 224 246 258 248 261 263 277 276 282 290 289 299 301 301 289 285 276 275 278 262
99 105 109 114 122 130 134 136 144 153 156 159 161 160 176 296 282 264 209 244 303 279 305 280 267 203 146 189 215 191 204 191 206 212 233 227 245 223 243 247 258 262 259 257 258 258 258 261 266 272 272 271 270 266
100 107 113 118 122 128 137 145 148 150 150 154 155 170 212 235 230 80 118 192 252 299 318 290 269 331 158 240 239 225 174 224 208 219 225 212 227 226 229 242 252 259 261 264 265 259 266 289 296 297 292 250 259 272
101 106 112 119 126 132 134 138 143 140 141 146 188 202 192 145 117 138 75 122 208 262 226 257 285 264 339 322 271 236 215 220 242 244 231 230 246 245 246 251 249 260 12 344 342 330 335 308 293 283 281 320 272 251
102 107 114 117 120 128 135 136 137 130 137 209 218 121 65 150 187 199 196 207 195 225 214 238 219 250 261 248 263 252 299 303 283 271 249 263 264 271 269 257 202 119 184 304 320 298 251 243 264 282 291 283 282 301
104 113 119 123 128 132 134 140 137 202 63 316 305 263 158 202 155 218 222 209 194 240 190 214 217 201 251 49 26 357 281 287 253 278 255 247 267 333 352 25 65 226 248 222 225 235 256 279 273 273 279 278 276 285
104 110 119 125 126 131 136 136 194 308 318 240 198 191 138 193 161 223 216 205 221 254 8 349 39 9 56 62 44 282 274 249 259 235 243 292 21 11 359 348 341 321 272 293 288 308 294 294 285 280 267 273 278 293
104 105 106 112 132 151 153 146 172 256 265 253 207 344 221 208 212 211 250 282 248 229 187 177 307 140 202 84 299 240 241 258 251 258 268 51 9 330 290 309 315 301 303 292 285 283 276 271 266 274 282 266 285 288
105 115 121 116 118 121 141 163 172 256 300 273 225 233 217 232 267 247 225 302 279 235 135 138 119 233 203 248 215 261 254 239 241 281 72 225 226 236 252 266 261 268 277 287 286 282 281 272 267 268 260 274 285 281
69 151 88 105 116 133 134 159 182 247 246 243 233 256 296 358 309 312 290 265 273 274 204 135 237 223 198 218 201 219 246 242 276 282 296 289 266 274 265 266 266 276 278 277 278 290 305 302 288 277 269 268 264 263
351 77 131 103 92 131 175 244 183 226 260 241 235 225 247 253 232 250 178 234 229 198 221 137 262 228 151 233 237 228 248 269 316 311 322 350 346 325 311 295 294 290 288 293 287 285 283 279 277 273 267 268 261 257
42 124 99 45 353 165 204 216 250 252 242 250 276 280 281 277 276 230 213 276 343 249 269 249 268 200 235 255 265 281 293 299 315 317 314 314 315 313 304 302 302 305 307 295 285 282 277 270 267 263 267 257 254 247
19 57 114 28 11 308 244 204 223 273 272 288 283 279 277 288 323 2 6 13 333 279 224 230 247 221 240 273 290 299 315 315 308 305 300 301 305 300 297 300 300 296 290 289 289 282 278 268 260 266 265 261 268 185
287 274 258 292 309 279 265 167 208 256 273 289 286 279 307 289 336 342 324 42 12 342 283 250 260 281 293 319 327 307 300 305 302 299 295 294 290 290 286 286 283 288 289 286 280 268 272 264 242 239 248 261 215 121
166 150 166 219 199 238 278 285 220 245 296 285 305 344 299 311 309 316 307 25 48 282 291 291 294 301 320 309 300 300 291 287 277 274 280 287 286 280 281 279 276 272 270 274 282 289 260 263 240 201 206 172 132 126
24 183 185 89 267 244 254 273 304 323 295 300 312 323 291 290 288 255 113 68 269 291 264 296 307 299 295 291 286 282 278 277 274 272 270 267 270 272 270 270 279 277 276 274 278 283 297 285 207 147 116 109 105 117
251 292 60 185 232 288 267 65 270 292 269 281 264 240 228 242 281 52 55 221 312 264 312 300 289 284 277 280 280 279 272 267 264 260 265 266 263 265 268 271 261 260 264 263 263 283 292 54 105 119 118 118 121 130
15 252 258 270 261 267 292 255 229 255 266 256 262 272 308 335 35 2 351 350 279 302 304 304 300 301 297 279 275 273 273 267 267 274 271 269 271 278 276 272 257 229 231 263 269 235 114 115 120 125 120 121 127 132
233 211 204 239 224 229 247 244 225 247 258 272 291 292 279 234 78 38 345 311 313 326 325 320 320 316 313 317 313 316 312 309 309 299 298 284 266 268 270 263 326 358 341 158 176 144 128 126 135 127 126 127 144 136
259 203 195 243 171 207 270 298 262 275 302 324 275 243 229 103 55 6 325 306 306 312 318 322 320 322 332 327 327 325 322 323 319 319 345 359 16 8 329 326 320 301 345 130 124 114 114 115 120 124 135 155 143 139
258 234 190 222 190 169 225 245 263 281 292 14 11 18 13 25 13 338 287 280 297 317 314 313 318 317 320 322 322 322 330 336 334 315 321 20 29 17 14 13 8 46 97 105 114 118 119 125 134 141 150 142 141 135
237 264 235 178 210 210 264 101 47 31 23 346 61 32 41 0 314 282 260 283 305 307 314 325 329 335 338 329 329 337 342 344 347 4 20 34 27 25 22 47 58 74 86 93 105 111 119 137 164 143 123 121 109 107
242 232 218 225 223 96 66 52 85 115 160 33 79 123 151 190 192 247 291 319 322 334 338 339 340 342 349 352 351 349 353 3 7 1 3 0 44 31 31 37 52 75 90 86 38 20 111 97 97 100 100 106 110 112
185 206 254 117 100 92 55 116 151 167 172 98 99 108 117 155 221 126 8 356 356 355 339 333 333 345 348 349 347 353 356 360 7 0 338 343 4 61 38 27 48 93 111 111 94 87 76 79 76 86 100 103 109 112
203 173 198 19 100 133 156 168 184 200 145 159 185 111 123 139 148 61 26 359 359 353 348 345 345 346 346 348 346 341 343 340 340 359 6 348 29 59 51 33 14 9 86 110 95 97 93 90 94 103 111 109 115 119
179 261 37 133 146 150 181 171 168 231 143 119 85 125 144 146 92 23 1 352 5 360 348 341 342 338 331 329 320 318 283 310 338 353 2 8 3 77 55 37 29 46 49 64 96 104 106 102 100 106 109 114 110 92
84 62 37 10 197 219 120 311 208 188 164 109 95 98 94 55 51 27 64 22 4 348 344 336 329 325 319 321 312 327 331 349 37 358 16 27 23 71 76 43 47 55 58 54 51 81 105 116 117 120 119 112 100 107